sat.trackr.live / text

‹ back to catalog

STARLINK-36771

NORAD 67928 · 2026-036AA

PAYLOAD ACTIVE UNKNOWN

§ Identity

Operator
Country
US
Launch date
2026-02-22
Launch site
AFETR
Launch vehicle
Mass (kg)
RCS (m²)

Purposes: comms

External: N2YO · Heavens-Above · Gunter

§ Orbital elements

Epoch: 2026-09-19T15:09:53.402112Z

Period
94.27 min
Inclination
43.0002°
Eccentricity
0.0000883
Mean motion
15.27581845 rev/d
Perigee alt
482.4 km
Apogee alt
483.6 km
Semi-major
6,861.2 km
B*
2.1673e-4
RAAN
229.9307°
Arg perigee
291.3948°
Mean anomaly
68.6809°
Rev number
3,338

§ Raw data

STARLINK-367711 67928U 26036AA  26262.63186808  .00005707  00000+0  21673-3 0  99972 67928  43.0002 229.9307 0000883 291.3948  68.6809 15.27581845 33380

JSON: /api/v1/satellites/67928 · /tle

For live sub-satellite position, see the globe view (requires WebGL).

§ Visibility from observer

Set your observer location to see the next 7 days of passes ≥ 10°. The values pass through the URL so the page stays shareable.

No JS? Fill the form by hand. The geolocation button needs JavaScript.